Regional Weather Roundup
Issued by NWS Northern Indiana

Home | Current Version | Previous Version | Text Only | Print | Product List | Glossary Off
Versions: 1 2 3 4 5 6 7 8 9 10 11 12 13 14 15 16 17 18 19 20 21 22 23 24 25 26 27 28 29 30 31 32 33 34 35 36 37 38 39 40 41 42 43 44 45 46 47 48 49 50

000
ASUS43 KIWX 180110
RWRIWX

KIWX WEATHER ROUNDUP
NATIONAL WEATHER SERVICE NORTHERN INDIANA
900 PM EDT THU AUG 17 2017

NOTE: "FAIR" INDICATES FEW OR NO CLOUDS BELOW 12,000 FEET WITH NO
SIGNIFICANT WEATHER AND/OR OBSTRUCTIONS TO VISIBILITY.

* THESE STATIONS ARE NOT UNDER NWS QUALITY CONTROL. THEY ALSO MAY NOT
  REPORT WEATHER SUCH AS PRECIPITATION OR FOG.

INZ001>027-180200-
NORTHERN INDIANA

CITY           SKY/WX    TMP DP  RH WIND       PRES   REMARKS
GARY*            N/A     79  63  57 SW14      29.77R
VALPARAISO     CLOUDY    77  67  71 SW7       29.79R
MICHIGAN CITY* CLOUDY    77  63  61 SW12      29.77S
LAPORTE*       CLOUDY    74  65  73 SW7       29.79R
KNOX*          CLOUDY    73  68  83 SW7       29.78S
SOUTH BEND     CLOUDY    76  68  76 SW9       29.77S
ELKHART*       CLOUDY    77  66  69 SW14      29.77R
GOSHEN         CLOUDY    74  65  73 SW8       29.78R
MONTICELLO*    PTCLDY    74  68  80 SW6       29.80S
LOGANSPORT*    PTCLDY    72  66  83 SW6       29.83R
ROCHESTER*     PTCLDY    77  68  73 SW6       29.81R
WARSAW*        CLEAR     75  66  73 SW7       29.80S
AUBURN*        PTCLDY    75  63  64 SW8       29.80R
FORT WAYNE     PTCLDY    76  67  73 W8        29.81R
HUNTINGTON*    CLEAR     75  69  79 W6        29.81R
PERU/GRISSOM   CLEAR     72  69  91 SW7       29.81S
MARION*        CLEAR     72  68  88 W6        29.83S

$$
INZ028>050-180200-
CENTRAL INDIANA

CITY           SKY/WX    TMP DP  RH WIND       PRES   REMARKS
LAFAYETTE      PTCLDY    75  69  81 CALM      29.81R
KOKOMO*        CLEAR     75  69  81 W6        29.83S
MUNCIE*        PTCLDY    80  69  69 SW5       29.84R
INDIANAPOLIS   PTCLDY    79  68  69 SW9       29.84R

$$
MIZ043>046-050>051-056>058-064>065-071>073-077>080-180200-
SOUTHWEST LOWER MICHIGAN

CITY           SKY/WX    TMP DP  RH WIND       PRES   REMARKS
BATTLE CREEK   CLOUDY    77  67  71 SW12      29.75R
BENTON HARBOR  CLOUDY    78  63  59 SW14G23   29.73S
COLDWATER*     PTCLDY    75  65  70 SW8       29.76S
HILLSDALE*     CLEAR     72  68  88 SW7       29.76S
HOLLAND        CLOUDY    77  65  66 SW17      29.70F
GRAND RAPIDS   MOCLDY    76  67  73 SW10      29.70S
KALAMAZOO      MOCLDY    78  63  59 SW12      29.74R
STURGIS*       PTCLDY    74  66  77 SW8       29.76S
THREE RIVERS*  FAIR      78  65  63 SW7       29.76R

$$
OHZ001>008-015>018-024>025-180200-
NORTHWEST OHIO

CITY           SKY/WX    TMP DP  RH WIND       PRES   REMARKS
WAUSEON*       FAIR      79  68  69 SW14      29.76R
DEFIANCE       CLEAR     79  66  64 SW8G20    29.77R
FINDLAY        CLEAR     79  66  64 SW12      29.79R
TOLEDO EXPRESS CLEAR     78  69  73 SW9       29.75R
TOLEDO METCALF CLEAR     80  69  69 SW9       29.76R
LIMA           CLEAR     77  69  76 SW6       29.82R

$$
AND FOR LAKE MICHIGAN COASTAL AND OPEN LAKE BUOY OBSERVATIONS

STATION/POSITION TEMP    WIND        PRES    VSBY  WAVE
                 AIR SEA DIR/SP/G                  HT/PER
                 (F)     (DEG/KT/KT) (MB)    (MI)  (FT/S)
CALUMET HARBOR    79     220/  8/ 14 1006.9R
MICHIGAN CITY     78     210/ 15/ 18   N/A
BURNS HARBOR      79     220/ 12/ 17 1008.1R
SAINT JOSEPH      76     220/ 15/ 17 1007.8
SOUTH LAKE BUOY   73 71  300/ 12/ 16 1005.4R         3/ 5
4 MI NW BRIDGMAN  76 74  240/ 14/ 17 1006.8          3/ 4
MICHIGAN CITY     77 74  230/ 14/ 17   N/A           3/ 4

$$
&&




USA.gov is the U.S. government's official web portal to all federal, state and local government web resources and services.